Flag for U.S.A. Weather past 2 weeks in Sedona, Arizona, U.S.A.

Now
73 °F

Clear.


Feels Like: 76 °F
Forecast: 64 / 90 °F
Wind: 14 mph from Northeast

Location: Sedona Airport

Current Time: Aug 28, 2014 at 11:27:58 PM

Latest Report: Aug 28, 2014 at 10:55 PM


Visibility: 10 mi

Pressure: 30.13 "Hg

Humidity: 27%

Dew point: 37 °F

Location of SedonaLocation

Historic Weather in Sedona — Graph

°F

Sedona temperature yesterday

Maximum temperature yesterday: 81 °F (at 1:55 PM)
Minimum temperature yesterday: 59 °F (at 4:15 AM)
Average temperature yesterday: 69 °F

Past Weeks' High & Low Weather Summary

 TemperatureHumidityPressure
High95 °F (Aug 17, 1:15 PM)100% (Aug 19, 1:15 PM)30.30 "Hg (Aug 19, 1:15 PM)
Low59 °F (Aug 20, 5:55 AM)17% (Aug 16, 4:15 PM)30.02 "Hg (Aug 19, 3:55 PM)
Average73 °F54%30.15 "Hg
* Reported Aug 13 10:15 PM — Aug 28 10:15 PM, Sedona, Weather by CustomWeather, © 2014

Note: Actual official high and low records may vary slightly from our data, if they occured in-between our weather recording intervals... More about our weather records

Advertising

Sedona weather history for previous 24 hours

 ConditionsComfort  
Time TempWeatherWind HumidityBarometerVisibility
10:15 PM
Aug 28
73 °FClear.14 mph29%30.14 "Hg10 mi
9:55 PM73 °FClear.15 mph31%30.13 "Hg10 mi
9:15 PM77 °FClear.10 mph28%30.13 "Hg10 mi
8:55 PM77 °FClear.13 mph28%30.13 "Hg10 mi
8:35 PM77 °FClear.10 mph28%30.13 "Hg10 mi
8:15 PM79 °FClear.9 mph26%30.13 "Hg10 mi
7:55 PM79 °FClear.10 mph26%30.12 "Hg10 mi
7:35 PM79 °FClear.9 mph28%30.12 "Hg10 mi
7:15 PM79 °FPassing clouds.9 mph28%30.11 "Hg10 mi
6:15 PM82 °FSunny.No wind25%30.10 "Hg10 mi
5:55 PM82 °FSunny.5 mph26%30.10 "Hg10 mi
5:35 PM84 °FSunny.8 mph25%30.10 "Hg10 mi
5:15 PM86 °FSunny.9 mph24%30.10 "Hg10 mi
4:55 PM86 °FSunny.5 mph24%30.11 "Hg10 mi
4:15 PM88 °FSunny.7 mph24%30.11 "Hg10 mi
3:55 PM88 °FSunny.8 mph22%30.12 "Hg10 mi
3:35 PM88 °FSunny.10 mph22%30.12 "Hg10 mi
3:15 PM88 °FSunny.9 mph24%30.12 "Hg10 mi
2:55 PM88 °FSunny.6 mph22%30.13 "Hg10 mi
2:35 PM86 °FSunny.5 mph25%30.13 "Hg10 mi
2:15 PM86 °FSunny.6 mph25%30.14 "Hg10 mi
1:55 PM84 °FSunny.6 mph27%30.15 "Hg10 mi
1:35 PM84 °FSunny.8 mph27%30.17 "Hg10 mi
1:15 PM84 °FSunny.8 mph29%30.17 "Hg10 mi
12:55 PM84 °FSunny.8 mph27%30.18 "Hg10 mi
12:35 PM86 °FSunny.7 mph25%30.19 "Hg10 mi
12:15 PM84 °FSunny.7 mph27%30.20 "Hg10 mi
11:55 AM82 °FSunny.5 mph32%30.20 "Hg10 mi
11:35 AM82 °FSunny.6 mph35%30.21 "Hg10 mi
11:15 AM81 °FSunny.6 mph37%30.21 "Hg10 mi
10:55 AM79 °FSunny.7 mph42%30.22 "Hg10 mi
10:35 AM79 °FSunny.5 mph42%30.23 "Hg10 mi
10:15 AM79 °FSunny.3 mph45%30.24 "Hg10 mi
9:55 AM75 °FSunny.No wind47%30.24 "Hg10 mi
9:15 AM73 °FSunny.No wind47%30.24 "Hg10 mi
8:55 AM72 °FSunny.No wind50%30.24 "Hg10 mi
8:15 AM70 °FSunny.3 mph50%30.24 "Hg10 mi
7:55 AM70 °FSunny.3 mph50%30.24 "Hg10 mi
7:35 AM70 °FSunny.3 mph50%30.24 "Hg10 mi
7:15 AM68 °FSunny.7 mph46%30.23 "Hg10 mi
6:55 AM64 °FSunny.10 mph56%30.22 "Hg10 mi
6:35 AM64 °FSunny.12 mph60%30.22 "Hg10 mi
6:15 AM63 °FSunny.13 mph64%30.22 "Hg10 mi
5:55 AM64 °FClear.10 mph60%30.22 "Hg10 mi
5:35 AM63 °FClear.12 mph64%30.22 "Hg10 mi
5:15 AM63 °FClear.12 mph64%30.22 "Hg10 mi
4:55 AM63 °FClear.12 mph64%30.21 "Hg10 mi
4:35 AM64 °FClear.10 mph60%30.21 "Hg10 mi
4:15 AM64 °FClear.12 mph60%30.21 "Hg10 mi
3:55 AM64 °FClear.13 mph60%30.21 "Hg10 mi
3:15 AM64 °FClear.10 mph60%30.21 "Hg10 mi
2:55 AM64 °FClear.12 mph64%30.21 "Hg10 mi
2:35 AM64 °FClear.12 mph64%30.21 "Hg10 mi
2:15 AM64 °FClear.13 mph64%30.22 "Hg10 mi
1:55 AM66 °FClear.14 mph60%30.22 "Hg10 mi
1:35 AM66 °FClear.13 mph60%30.22 "Hg10 mi
1:15 AM66 °FClear.13 mph60%30.22 "Hg10 mi
12:55 AM68 °FClear.12 mph56%30.22 "Hg10 mi
12:15 AM68 °FClear.13 mph56%30.23 "Hg10 mi
11:55 PM
Aug 27
68 °FClear.13 mph56%30.23 "Hg10 mi
11:35 PM70 °FClear.13 mph53%30.23 "Hg10 mi
11:15 PM68 °FPassing clouds.10 mph56%30.24 "Hg10 mi
Weather by CustomWeather, © 2014

See weather overviewHow to use our weather pages